{"data":{"norad_id":59710,"epoch":"2026-05-25T04:29:29.442048Z","epoch_age_seconds":48911,"freshness":"FRESH","line1":"1 59710U 24088C   26145.18714632  .00000435  00000+0  84463-5 0  9995","line2":"2 59710  53.1605 309.4142 0001083  86.3472 273.7670 15.69709520118285","mean_motion":15.6970952,"eccentricity":0.0001083,"inclination_deg":53.1605,"raan_deg":309.4142,"arg_perigee_deg":86.3472,"mean_anomaly_deg":273.767,"bstar":8.4463e-6,"rev_number":11828,"period_min":91.736718268741,"perigee_km":358.99841320347,"apogee_km":360.45783478933,"semimajor_km":6737.8651239964,"source":"CELESTRAK","updated_at":"2026-05-25T13:38:19.045636Z"}}